Salida, CO

8:46 AM MST on February 27, 2017 (GMT -0700)
Salida

Weather History for KANK - May, 2013

Change the Weather History Date:

Thursday, May 23, 2013

  Actual Average (KGUC) Record (KGUC)
Temperature  
Mean Temperature 64 °F -  
Max Temperature 79 °F 65 °F 80 °F (2005)
Min Temperature 48 °F 33 °F 19 °F (2002)
Degree Days  
Heating Degree Days 2    
Growing Degree Days 14 (Base 50)    
Moisture  
Dew Point 36 °F    
Average Humidity 50    
Maximum Humidity 78    
Minimum Humidity 8    
Precipitation  
Precipitation 0.00 in - - ()
Sea Level Pressure  
Sea Level Pressure 30.19 in    
Wind  
Wind Speed 11 mph (ESE)    
Max Wind Speed 29 mph    
Max Gust Speed 40 mph    
Visibility 10 miles    
Events      
Averages and records for this station are not official NWS values.
T = Trace of Precipitation, MM = Missing Value Source: NWS Daily Summary

Daily Weather History Graph

Daily Weather History Graph

Search for Another Location

Airport or City:

Trip Planner

Search our weather history database for the weather conditions in past years. The results will help you decide how hot, cold, wet, or windy it might be!

Date:

Astronomy

May. 23, 2013 Rise Set
Actual Time 5:46 AM MDT 8:16 PM MDT
Civil Twilight 5:15 AM MDT 8:46 PM MDT
Nautical Twilight 4:37 AM MDT 9:24 PM MDT
Astronomical Twilight 3:55 AM MDT 10:06 PM MDT
Moon 6:52 PM MDT (5/23) 4:31 AM MDT (5/23)
Length of Visible Light 15h 31m
Length of Day
14h 29m
Waxing Gibbous, 97% of the Moon is Illuminated
May 23
Waxing Gibbous
May 24
Full
May 31
Last Quarter
Jun 8
New
Jun 16
First Quarter

Hourly Weather History & Observations

Time (MDT) Temp. Dew Point Humidity Pressure Visibility Wind Dir Wind Speed Gust Speed Precip Events Conditions
12:15 AM 55.6 °F 32.0 °F 41% 30.19 in 10.0 mi North 5.8 mph - N/A   Scattered Clouds
12:35 AM 55.0 °F 32.4 °F 42% 30.19 in 10.0 mi SW 3.5 mph - N/A   Clear
12:55 AM 55.8 °F 31.6 °F 40% 30.19 in 10.0 mi Calm Calm - N/A   Clear
1:15 AM 56.1 °F 31.8 °F 40% 30.19 in 10.0 mi ENE 6.9 mph 18.4 mph N/A   Clear
1:35 AM 56.5 °F 33.8 °F 42% 30.20 in 10.0 mi East 12.7 mph 21.9 mph N/A   Clear
1:55 AM 55.6 °F 35.1 °F 46% 30.20 in 10.0 mi East 12.7 mph 17.3 mph N/A   Clear
2:15 AM 54.7 °F 36.5 °F 50% 30.21 in 10.0 mi ESE 9.2 mph 18.4 mph N/A   Clear
2:35 AM 53.8 °F 37.9 °F 55% 30.21 in 10.0 mi East 10.4 mph 20.7 mph N/A   Clear
2:55 AM 53.1 °F 38.7 °F 58% 30.22 in 10.0 mi East 8.1 mph 18.4 mph N/A   Clear
3:15 AM 52.3 °F 39.2 °F 61% 30.22 in 10.0 mi East 10.4 mph 17.3 mph N/A   Clear
3:35 AM 51.8 °F 39.6 °F 63% 30.23 in 10.0 mi ESE 10.4 mph 19.6 mph N/A   Scattered Clouds
3:55 AM 51.3 °F 39.7 °F 65% 30.23 in 10.0 mi East 9.2 mph 19.6 mph N/A   Scattered Clouds
4:15 AM 51.3 °F 40.1 °F 66% 30.24 in 10.0 mi ESE 9.2 mph 18.4 mph N/A   Mostly Cloudy
4:35 AM 50.5 °F 40.1 °F 67% 30.25 in 10.0 mi East 10.4 mph 16.1 mph N/A   Overcast
4:55 AM 50.4 °F 40.1 °F 68% 30.25 in 10.0 mi East 6.9 mph - N/A   Overcast
5:15 AM 49.8 °F 40.1 °F 69% 30.25 in 10.0 mi ESE 10.4 mph 16.1 mph N/A   Overcast
5:35 AM 49.1 °F 40.1 °F 71% 30.25 in 10.0 mi ESE 13.8 mph 19.6 mph N/A   Scattered Clouds
5:55 AM 48.6 °F 40.1 °F 73% 30.25 in 10.0 mi East 10.4 mph - N/A   Clear
6:15 AM 48.2 °F 40.1 °F 74% 30.27 in 10.0 mi East 8.1 mph - N/A   Clear
6:35 AM 48.2 °F 40.3 °F 74% 30.27 in 10.0 mi ESE 6.9 mph - N/A   Clear
6:55 AM 48.7 °F 40.3 °F 73% 30.27 in 10.0 mi ESE 5.8 mph - N/A   Scattered Clouds
7:15 AM 50.2 °F 40.1 °F 68% 30.27 in 10.0 mi SE 11.5 mph - N/A   Scattered Clouds
7:35 AM 49.8 °F 39.7 °F 68% 30.27 in 10.0 mi ESE 6.9 mph 17.3 mph N/A   Scattered Clouds
7:55 AM 52.2 °F 40.3 °F 64% 30.27 in 10.0 mi East 10.4 mph - N/A   Clear
8:15 AM 53.1 °F 40.3 °F 62% 30.27 in 10.0 mi ESE 11.5 mph 17.3 mph N/A   Clear
8:35 AM 53.8 °F 39.6 °F 59% 30.27 in 10.0 mi East 9.2 mph 17.3 mph N/A   Clear
8:55 AM 55.0 °F 38.8 °F 54% 30.27 in 10.0 mi ESE 9.2 mph 18.4 mph N/A   Clear
9:15 AM 55.4 °F 38.5 °F 53% 30.26 in 10.0 mi East 10.4 mph 18.4 mph N/A   Clear
9:35 AM 56.5 °F 38.8 °F 52% 30.25 in 10.0 mi East 10.4 mph - N/A   Clear
9:55 AM 57.9 °F 38.1 °F 48% 30.24 in 10.0 mi East 8.1 mph - N/A   Clear
10:15 AM 57.0 °F 38.1 °F 49% 30.24 in 10.0 mi SE 8.1 mph - N/A   Clear
10:35 AM 58.6 °F 37.8 °F 46% 30.23 in 10.0 mi SE 9.2 mph - N/A   Clear
10:55 AM 61.5 °F 38.5 °F 43% 30.22 in 10.0 mi ESE 9.2 mph 18.4 mph N/A   Clear
11:15 AM 62.2 °F 38.5 °F 41% 30.21 in 10.0 mi ESE 12.7 mph 20.7 mph N/A   Clear
11:35 AM 63.3 °F 38.3 °F 40% 30.20 in 10.0 mi ESE 15.0 mph 21.9 mph N/A   Clear
11:55 AM 64.6 °F 36.7 °F 36% 30.19 in 10.0 mi ESE 16.1 mph 25.3 mph N/A   Clear
12:15 PM 67.5 °F 34.9 °F 30% 30.17 in 10.0 mi ESE 16.1 mph 27.6 mph N/A   Clear
12:35 PM 69.1 °F 34.7 °F 28% 30.15 in 10.0 mi ESE 20.7 mph 29.9 mph N/A   Clear
12:55 PM 71.6 °F 33.8 °F 25% 30.14 in 10.0 mi ESE 18.4 mph 26.5 mph N/A   Clear
1:15 PM 72.0 °F 33.3 °F 24% 30.13 in 10.0 mi ESE 20.7 mph 32.2 mph N/A   Scattered Clouds
1:35 PM 73.8 °F 30.7 °F 21% 30.12 in 10.0 mi SE 20.7 mph 26.5 mph N/A   Scattered Clouds
1:55 PM 76.3 °F 19.2 °F 12% 30.12 in 10.0 mi South 13.8 mph 26.5 mph N/A   Clear
2:15 PM 76.3 °F 17.4 °F 11% 30.11 in 10.0 mi South 18.4 mph 31.1 mph N/A   Scattered Clouds
2:35 PM 79.2 °F 14.7 °F 9% 30.11 in 10.0 mi South 19.6 mph 29.9 mph N/A   Scattered Clouds
2:55 PM 77.7 °F 12.2 °F 8% 30.10 in 10.0 mi SSW 16.1 mph 28.8 mph N/A   Clear
3:15 PM 76.5 °F 13.8 °F 9% 30.09 in 10.0 mi SSE 16.1 mph 25.3 mph N/A   Clear
3:35 PM 77.0 °F 12.6 °F 9% 30.08 in 10.0 mi South 12.7 mph 26.5 mph N/A   Clear
3:55 PM 78.1 °F 11.8 °F 8% 30.08 in 10.0 mi SSW 17.3 mph 34.5 mph N/A   Clear
4:15 PM 79.5 °F 13.1 °F 8% 30.09 in 10.0 mi SSW 9.2 mph 21.9 mph N/A   Clear
4:35 PM 70.9 °F 34.5 °F 26% 30.09 in 10.0 mi SE 24.2 mph 32.2 mph N/A   Clear
4:55 PM 66.2 °F 37.2 °F 34% 30.09 in 10.0 mi ESE 20.7 mph 31.1 mph N/A   Clear
5:15 PM 63.3 °F 40.1 °F 43% 30.09 in 10.0 mi ESE 21.9 mph 35.7 mph N/A   Clear
5:35 PM 63.1 °F 40.8 °F 44% 30.10 in 10.0 mi SE 26.5 mph 39.1 mph N/A   Clear
5:55 PM 61.7 °F 40.8 °F 46% 30.12 in 10.0 mi SSE 12.7 mph 39.1 mph N/A   Clear
6:15 PM 61.2 °F 41.9 °F 49% 30.12 in 10.0 mi ESE 17.3 mph 29.9 mph N/A   Clear
6:35 PM 59.4 °F 42.1 °F 53% 30.12 in 10.0 mi ESE 19.6 mph 35.7 mph N/A   Clear
6:55 PM 58.5 °F 42.4 °F 55% 30.12 in 10.0 mi ESE 28.8 mph 36.8 mph N/A   Clear
7:15 PM 57.7 °F 42.8 °F 57% 30.13 in 10.0 mi ESE 20.7 mph 40.3 mph N/A   Clear
7:35 PM 57.0 °F 42.8 °F 59% 30.15 in 10.0 mi SE 23.0 mph 31.1 mph N/A   Clear
7:55 PM 56.1 °F 43.0 °F 61% 30.16 in 10.0 mi ESE 18.4 mph 28.8 mph N/A   Clear
8:15 PM 55.0 °F 43.2 °F 64% 30.17 in 10.0 mi SE 18.4 mph 27.6 mph N/A   Clear
8:35 PM 54.3 °F 43.2 °F 66% 30.18 in 10.0 mi SE 17.3 mph 23.0 mph N/A   Clear
8:55 PM 53.8 °F 43.2 °F 67% 30.19 in 10.0 mi SE 16.1 mph 21.9 mph N/A   Clear
9:15 PM 54.1 °F 43.2 °F 66% 30.20 in 10.0 mi SE 12.7 mph 19.6 mph N/A   Clear
9:35 PM 53.4 °F 43.3 °F 69% 30.20 in 10.0 mi ESE 11.5 mph 18.4 mph N/A   Clear
9:55 PM 52.2 °F 43.3 °F 72% 30.21 in 10.0 mi SE 9.2 mph 16.1 mph N/A   Clear
10:15 PM 51.8 °F 43.5 °F 73% 30.22 in 10.0 mi SE 12.7 mph 19.6 mph N/A   Clear
10:35 PM 51.8 °F 43.7 °F 74% 30.23 in 10.0 mi SE 11.5 mph 19.6 mph N/A   Clear
10:55 PM 51.3 °F 43.7 °F 75% 30.23 in 10.0 mi ESE 10.4 mph 18.4 mph N/A   Clear
11:15 PM 51.3 °F 43.0 °F 73% 30.23 in 10.0 mi South 10.4 mph 18.4 mph N/A   Clear
11:35 PM 52.0 °F 43.0 °F 71% 30.23 in 10.0 mi SE 9.2 mph - N/A   Clear
11:55 PM 50.2 °F 43.7 °F 78% 30.23 in 10.0 mi ESE 4.6 mph - N/A   Scattered Clouds